Regional Weather Roundup
Issued by NWS Newport/Morehead, NC

Current Version | Previous Version | Graphics & Text | Print | Product List | Glossary Off
Versions: 1 2 3 4 5 6 7 8 9 10 11 12 13 14 15 16 17 18 19 20 21 22 23 24 25 26 27 28 29 30 31 32 33 34 35 36 37 38 39 40 41 42 43 44 45 46 47 48 49 50

000
ASUS42 KMHX 211513
RWRMHX
WEATHER ROUNDUP FOR EASTERN NORTH CAROLINA
NATIONAL WEATHER SERVICE NEWPORT/MOREHEAD CITY NC
1100 AM EDT SAT OCT 21 2017

NOTE: "FAIR" INDICATES FEW OR NO CLOUDS BELOW 12,000 FEET
WITH NO SIGNIFICANT WEATHER AND/OR OBSTRUCTIONS TO VISIBILITY

NCZ015>017-031-032-045>047-102-103-211600-
NORTH COAST

CITY           SKY/WX    TMP DP  RH WIND       PRES   REMARKS
EDENTON        SUNNY     72  62  69 CALM      30.35S
ELIZABETH CITY SUNNY     71  57  61 N5        30.35S
KITTY HAWK     SUNNY     69  60  72 CALM      30.34R
MANTEO         SUNNY    N/A N/A N/A N5        30.35S

$$

NCZ045>047-081-094-103-104-211600-
CENTRAL COAST

CITY           SKY/WX    TMP DP  RH WIND       PRES   REMARKS
FRISCO         SUNNY     73  65  75 N7        30.34R

$$

NCZ095-097-098-100-101-211600-
SOUTHERN COAST

CITY           SKY/WX    TMP DP  RH WIND       PRES   REMARKS
BEAUFORT       SUNNY     74  56  53 NE6       30.33S
CEDAR ISLAND   NOT AVBL
JACKSONVILLE   SUNNY     72  60  66 NE5       30.33S
PINEY ISLAND     N/A    N/A N/A N/A N9        30.33S
WILMINGTON     SUNNY     74  58  57 NE8       30.32F


$$

NCZ011>013-027>030-043-044-078>080-089-090>093-098-211600-
COASTAL PLAIN

CITY           SKY/WX    TMP DP  RH WIND       PRES   REMARKS
AHOSKIE        SUNNY     67  58  74 CALM      30.35S
CLINTON        SUNNY     72  58  61 CALM      30.34S
ELIZABETHTOWN  NOT AVBL
GOLDSBORO      SUNNY     71  57  60 CALM      30.33S HAZE
GREENVILLE     SUNNY     68  57  68 CALM      30.35R
HAVELOCK       SUNNY     73 N/A N/A NE5       30.35R
KENANSVILLE    SUNNY     72  57  60 CALM      30.34S
KINSTON        SUNNY     72  55  56 CALM      30.35S
NEW BERN       SUNNY     71  58  63 VRB3      30.35S
RICHLANDS      SUNNY     72  58  61 NE5       30.34F
ROCKY MOUNT    SUNNY     69  58  67 CALM      30.35S
WASHINGTON     SUNNY     70  58  65 CALM      30.35S
WHITEVILLE     SUNNY     71  55  56 CALM      30.32S

$$

AMZ130-135-150-152-154-156-158-170-250-252-270-ANZ085-086-088-633-658-670-211600-
MARINE OBSERVATIONS

STATION/POSITION TIME  TEMP    WIND        PRES    WAVE   SWELL
                       AIR SEA DIR/SP/G            HT/PER HT/PER
                 (UTC) (F)     (DEG/KT/KT) (MB)    (FT/S) (FT/S)
CHESAPEAKE LIGHT NOT AVBL
64 E VA BEACH    1450   67 68   10/  6/  8 1027.8    3/ 8   3/ 8
DUCK             1448   68 70   10/  7/  9 1027.3
2 E DUCK         1500      70                N/A     2/ 8
OREGON INLET     1442   70 69  360/  5/  9 1027.5
13E OREGON INLT  1448      72                N/A     2/ 8   2/ 8
HATTERAS CG      1448   68 70   10/  9/ 10 1027.2
DIAMOND BUOY     1450   73 81   10/ 12/ 14 1026.7    3/ 8   3/ 8
CAPE LOOKOUT     1500   72      10/  8/ 10 1026.7
BEAUFORT LAB     1448   71 72   10/  5/  8 1027.2
30 SE NEW RVR IN 1408   74      50/ 10/ 14 1026.4
30 SE NEW RVR IN NOT AVBL
27 SE WRIGHTSVLE 1408   74 75   70/ 10/ 12 1026.3
5 SE WRIGHTSVLE  1408   69 74   30/ 10/ 14 1026.5
225 S CAPE HAT   1350   77 80   70/ 12/ 16 1024.5    4/ 9   3/ 9
41 SE CHARLESTON 1450   76 81   30/ 16/ 19 1024.8    3/ 9   2/ 9

$$



USA.gov is the U.S. government's official web portal to all federal, state and local government web resources and services.